Location: Unspecified
(0.0000°N, 0.0000°E)
Time: 19:33:31
(UTC+00:00)

Vanguard 1 Rocket - Pass Details

Date: 23 April 2026
Orbit: 655 x 4212 km, 34.3° (Epoch: 17 May)

Event Time Altitude Azimuth Distance (km) Brightness Sun altitude
Rises 04:51:05 0° 304° (NW) 6,663 11.4 -16.4°
Reaches altitude 10° 04:56:19 10° 303° (WNW) 5,069 10.8 -15.1°
Maximum altitude 05:08:59 76° 219° (SW) 1,441 8.2 -12.1°
Drops below altitude 10° 05:15:27 10° 133° (SE) 2,716 10.3 -10.5°
Sets 05:17:28 0° 131° (SE) 3,450 10.9 -10.0°
